TITAN 3C TRANSTAGE R/B, 3692

Orbit data source: Space-Track

TITAN 3C TRANSTAGE R/B, 3692 is space debris in GEO originally from a launch on Sun, 09 Feb 1969 UTC launched from the Air Force Eastern Test Range (AFETR). Debris objects in space refer to the collection of defunct objects orbiting the Earth. Examples of debris include non-operational satellites, rocket bodies, and fragments generated from explosions, collisions, or faulty payload assembly.

Not visible in the next 10 days
Identifier
3692, 1969-013B
Orbit
GEO
Country
Flag of USUS
Related business
Manufacturer
Martin Marietta
Mission
Spacecraft
Bus & Motor
TRANSTAGE, Unknown motor
Mass
2,028 kg wet, 2,028 kg dry
Launch date (UTC)
1969-02-09 (57 years ago)
Launch vehicle
Unknown
Launch site
Air Force Eastern Test Range (AFETR)
Object type
Payload
Rocket body
Debris
Shape & HBR
Cyl + 2 Nozzle, 2.3 m
Radar Cross Section
14.974 m², Large (>1 m²)

Expand to show TLE details & history
Last TLE update: 16 hours ago

TLE from 16 hours ago
0 TITAN 3C TRANSTAGE R/B
1 03692U 69013B   25258.22480885 -.00000269  00000-0  00000-0 0  9996
2 03692   0.5857  73.2448 0168202  37.8743 311.0440  0.97536872 39637
Epoch: 2025-09-15T05:23Z
TLE epoch observation values (Epoch: 2025-09-15T05:23:43.484Z)
Latitude
-0.14672°
Longitude
-14.67955°
Altitude
36,106.3 km
Speed
3.08 km/s
True Right ascension
04h 02m 44s
True Declination
0° 08' 48"
Sunlit
Object was in daylight at epoch
Visualization orbit readout
Latitude
Unknown
Longitude
Unknown
Altitude
Unknown
Speed
Unknown
Apparent Right ascension
Unknown
Apparent Declination
Unknown
Sunlit
N/A
Visualization observer readout
Local Sidereal Time
13:55:15
Azimuth
Unknown
Elevation
Unknown
Doppler factor
Unknown
Orbital elements
Apogee altitude
37,294.635 km
Perigee altitude
35,849.769 km
Semi-major axis
42,950.339 km
Eccentricity
0.01682
Inclination
0.5857°
RAAN
73.2448°
Arg. of periapsis
37.8743°
True anomaly
309.57013°
Mean anomaly
311.044°
Eccentric anomaly
310.3091°
Mean motion
0.24383 °/min
Orbital period
1,476.42 mins
BSTAR
0
Loading maneuver chart data...
Computing Atmospheric mass density...

Documentation

Showing up to 5 results
|